When you browse on this site, cookies collect data to enhance your experience and personalize the content and advertising you see.
Visit our Privacy Policy to learn more. By continuing to use the site, you agree to this use of cookies and data.
  • In Portugal
  • List of Countries
  • For 7 days
  • Water Temperature
  • Satellite Maps
  • Weather Map
  • Weather Widgets
  • user-avatar
    Login

    Hourly Weather Patoka

    Today, 16 February, Saturday

    Time Temperature Precipitation Wind Pressure Humidity
    00:00 +5°C° 0 mm 1 mps 760 mmHg 63%
    01:00 +4°C° 0 mm 1 mps 760 mmHg 61%
    02:00 +4°C° 0 mm 1 mps 760 mmHg 59%
    03:00 +4°C° 0 mm 1 mps 760 mmHg 57%
    04:00 +4°C° 0 mm 1 mps 759 mmHg 55%
    05:00 +4°C° 0 mm 1 mps 759 mmHg 54%
    06:00 +4°C° 0 mm 1 mps 759 mmHg 53%
    07:00 +4°C° 0 mm 1 mps 759 mmHg 52%
    08:00 +6°C° 0 mm 1 mps 759 mmHg 50%
    09:00 +8°C° 0 mm 1 mps 759 mmHg 47%
    10:00 +10°C° 0 mm 1 mps 759 mmHg 44%
    11:00 +10°C° 0 mm 2 mps 758 mmHg 43%
    12:00 +13°C° 0 mm 2 mps 758 mmHg 41%
    13:00 +14°C° 0 mm 2 mps 758 mmHg 39%
    14:00 +14°C° 0 mm 2 mps 758 mmHg 42%
    15:00 +13°C° 0 mm 2 mps 757 mmHg 46%
    16:00 +13°C° 0 mm 2 mps 757 mmHg 49%
    17:00 +10°C° 0 mm 2 mps 757 mmHg 51%
    18:00 +9°C° 0 mm 2 mps 757 mmHg 52%
    19:00 +7°C° 0 mm 3 mps 757 mmHg 54%
    20:00 +7°C° 0 mm 3 mps 757 mmHg 53%
    21:00 +5°C° 0 mm 3 mps 757 mmHg 53%
    22:00 +5°C° 0 mm 3 mps 757 mmHg 52%
    23:00 +5°C° 0 mm 3 mps 757 mmHg 55%

    Tomorrow, 17 February, Sunday

    Time Temperature Precipitation Wind Pressure Humidity
    00:00 +4°C° 0 mm 3 mps 757 mmHg 57%
    01:00 +4°C° 0 mm 3 mps 757 mmHg 60%
    02:00 +3°C° 0 mm 3 mps 757 mmHg 62%
    03:00 +4°C° 0 mm 2 mps 756 mmHg 65%
    04:00 +4°C° 0 mm 2 mps 756 mmHg 67%
    05:00 +3°C° 0 mm 2 mps 756 mmHg 67%
    06:00 +3°C° 0 mm 2 mps 756 mmHg 68%
    07:00 +3°C° 0 mm 2 mps 756 mmHg 69%
    08:00 +4°C° 0 mm 2 mps 756 mmHg 64%
    09:00 +6°C° 0 mm 2 mps 756 mmHg 59%
    10:00 +8°C° 0 mm 2 mps 757 mmHg 54%
    11:00 +9°C° 0 mm 2 mps 756 mmHg 51%
    12:00 +10°C° 0 mm 2 mps 756 mmHg 47%
    13:00 +13°C° 0 mm 2 mps 756 mmHg 44%
    14:00 +13°C° 0 mm 2 mps 756 mmHg 47%
    15:00 +12°C° 0 mm 1 mps 755 mmHg 50%
    16:00 +12°C° 0 mm 1 mps 755 mmHg 53%
    17:00 +11°C° 0 mm 1 mps 755 mmHg 58%
    18:00 +9°C° 0 mm 1 mps 755 mmHg 62%
    19:00 +8°C° 0 mm 1 mps 755 mmHg 67%
    20:00 +7°C° 0 mm 1 mps 755 mmHg 66%
    21:00 +7°C° 0 mm 1 mps 755 mmHg 65%
    22:00 +6°C° 0 mm 1 mps 755 mmHg 65%
    23:00 +6°C° 0 mm 1 mps 755 mmHg 64%

    Day after tomorrow, 18 February, Monday

    Time Temperature Precipitation Wind Pressure Humidity
    00:00 +6°C° 0 mm 1 mps 755 mmHg 62%
    01:00 +5°C° 0 mm 1 mps 755 mmHg 61%
    02:00 +5°C° 0 mm 1 mps 755 mmHg 61%
    03:00 +5°C° 0 mm 1 mps 754 mmHg 61%
    04:00 +4°C° 0 mm 1 mps 754 mmHg 62%
    05:00 +4°C° 0 mm 1 mps 754 mmHg 62%
    06:00 +4°C° 0 mm 1 mps 754 mmHg 63%
    07:00 +4°C° 0 mm 1 mps 754 mmHg 64%
    08:00 +6°C° 0 mm 1 mps 754 mmHg 59%
    09:00 +7°C° 0 mm 1 mps 754 mmHg 54%
    10:00 +9°C° 0 mm 1 mps 754 mmHg 50%
    11:00 +11°C° 0 mm 1 mps 754 mmHg 46%
    12:00 +12°C° 0 mm 1 mps 754 mmHg 43%
    13:00 +13°C° 0 mm 1 mps 754 mmHg 39%
    14:00 +13°C° 0 mm 1 mps 753 mmHg 42%
    15:00 +13°C° 0 mm 1 mps 753 mmHg 45%
    16:00 +13°C° 0 mm 1 mps 753 mmHg 48%
    17:00 +11°C° 0 mm 1 mps 753 mmHg 53%
    18:00 +9°C° 0 mm 1 mps 753 mmHg 58%
    19:00 +8°C° 0 mm 1 mps 753 mmHg 63%
    20:00 +7°C° 0 mm 1 mps 752 mmHg 61%
    21:00 +6°C° 0 mm 2 mps 752 mmHg 60%
    22:00 +5°C° 0 mm 2 mps 752 mmHg 59%
    23:00 +5°C° 0 mm 2 mps 752 mmHg 61%

    19 February, Tuesday

    Time Temperature Precipitation Wind Pressure Humidity
    00:00 +5°C° 0 mm 2 mps 752 mmHg 62%
    01:00 +4°C° 0 mm 2 mps 752 mmHg 64%
    02:00 +4°C° 0 mm 2 mps 752 mmHg 66%
    03:00 +4°C° 0 mm 2 mps 751 mmHg 69%
    04:00 +4°C° 0 mm 2 mps 751 mmHg 71%
    05:00 +3°C° 0 mm 3 mps 751 mmHg 71%
    06:00 +3°C° 0 mm 3 mps 751 mmHg 70%
    07:00 +3°C° 0 mm 3 mps 751 mmHg 70%
    08:00 +4°C° 0 mm 3 mps 751 mmHg 64%
    09:00 +6°C° 0 mm 4 mps 751 mmHg 58%
    10:00 +8°C° 0 mm 4 mps 751 mmHg 53%
    11:00 +10°C° 0 mm 4 mps 751 mmHg 50%
    12:00 +10°C° 0 mm 5 mps 751 mmHg 47%
    13:00 +12°C° 0 mm 5 mps 750 mmHg 44%
    14:00 +12°C° 0 mm 5 mps 750 mmHg 48%
    15:00 +10°C° 0 mm 5 mps 750 mmHg 51%
    16:00 +11°C° 0 mm 4 mps 750 mmHg 54%
    17:00 +10°C° 0.1 mm 4 mps 750 mmHg 62%
    18:00 +8°C° 0.1 mm 4 mps 750 mmHg 70%
    19:00 +7°C° 0.1 mm 4 mps 751 mmHg 78%
    20:00 +6°C° 0.1 mm 4 mps 751 mmHg 82%
    21:00 +6°C° 0.1 mm 4 mps 751 mmHg 86%
    22:00 +5°C° 0.1 mm 4 mps 752 mmHg 90%
    23:00 +4°C° 0 mm 4 mps 752 mmHg 89%

    20 February, Wednesday

    Time Temperature Precipitation Wind Pressure Humidity
    00:00 +4°C° 0 mm 4 mps 752 mmHg 89%
    01:00 +4°C° 0 mm 4 mps 753 mmHg 89%
    02:00 +3°C° 0 mm 4 mps 753 mmHg 88%
    03:00 +3°C° 0 mm 4 mps 753 mmHg 88%
    04:00 +3°C° 0 mm 4 mps 753 mmHg 87%
    05:00 +3°C° 0 mm 4 mps 753 mmHg 87%
    06:00 +3°C° 0 mm 4 mps 753 mmHg 87%
    07:00 +1°C° 0 mm 4 mps 753 mmHg 87%
    08:00 +2°C° 0 mm 5 mps 754 mmHg 81%
    09:00 +3°C° 0 mm 5 mps 754 mmHg 75%
    10:00 +5°C° 0 mm 5 mps 754 mmHg 69%
    11:00 +5°C° 0 mm 6 mps 754 mmHg 64%
    12:00 +7°C° 0 mm 6 mps 754 mmHg 59%
    13:00 +8°C° 0 mm 6 mps 754 mmHg 55%
    14:00 +8°C° 0 mm 6 mps 754 mmHg 56%
    15:00 +8°C° 0 mm 5 mps 754 mmHg 57%
    16:00 +8°C° 0 mm 4 mps 754 mmHg 57%
    17:00 +7°C° 0 mm 4 mps 754 mmHg 63%
    18:00 +7°C° 0 mm 3 mps 754 mmHg 68%
    19:00 +5°C° 0 mm 3 mps 754 mmHg 74%
    20:00 +5°C° 0 mm 3 mps 755 mmHg 74%
    21:00 +5°C° 0 mm 3 mps 755 mmHg 74%
    22:00 +5°C° 0 mm 3 mps 755 mmHg 74%
    23:00 +5°C° 0.1 mm 4 mps 755 mmHg 76%

    21 February, Thursday

    Time Temperature Precipitation Wind Pressure Humidity
    00:00 +5°C° 0.1 mm 4 mps 755 mmHg 77%
    01:00 +5°C° 0.1 mm 4 mps 754 mmHg 79%
    02:00 +5°C° 0 mm 4 mps 754 mmHg 80%
    03:00 +5°C° 0 mm 5 mps 754 mmHg 80%
    04:00 +5°C° 0 mm 5 mps 754 mmHg 81%
    05:00 +5°C° 0.1 mm 5 mps 754 mmHg 81%
    06:00 +5°C° 0.1 mm 5 mps 754 mmHg 82%
    07:00 +5°C° 0.1 mm 5 mps 754 mmHg 82%
    08:00 +5°C° 0 mm 6 mps 754 mmHg 79%
    09:00 +5°C° 0 mm 6 mps 754 mmHg 76%
    10:00 +7°C° 0 mm 6 mps 754 mmHg 74%
    11:00 +8°C° 0 mm 6 mps 754 mmHg 72%
    12:00 +8°C° 0 mm 7 mps 753 mmHg 69%
    13:00 +9°C° 0 mm 7 mps 753 mmHg 67%
    14:00 +9°C° 0.1 mm 7 mps 753 mmHg 69%
    15:00 +9°C° 0.1 mm 7 mps 752 mmHg 71%
    16:00 +9°C° 0.1 mm 6 mps 752 mmHg 73%
    17:00 +8°C° 0.4 mm 6 mps 752 mmHg 77%
    18:00 +8°C° 0.4 mm 6 mps 752 mmHg 81%
    19:00 +8°C° 0.4 mm 6 mps 752 mmHg 86%
    20:00 +7°C° 0.3 mm 6 mps 752 mmHg 87%
    21:00 +7°C° 0.3 mm 5 mps 752 mmHg 88%
    22:00 +7°C° 0.3 mm 5 mps 752 mmHg 89%
    23:00 +7°C° 0.2 mm 5 mps 752 mmHg 88%
    Show more